Regional Weather Roundup
Issued by NWS Goodland, KS

Home | Current Version | Previous Version | Graphics & Text | Print | Product List | Glossary On
Versions: 1 2 3 4 5 6 7 8 9 10 11 12 13 14 15 16 17 18 19 20 21 22 23 24 25 26 27 28 29 30 31 32 33 34 35 36 37 38 39 40 41 42 43 44 45 46 47 48 49 50
000
ASUS43 KGLD 241808
RWRGLD

GOODLAND FORECAST AREA HOURLY WEATHER ROUNDUP
NATIONAL WEATHER SERVICE GOODLAND KS
1200 PM MDT THU JUL 24 2014

...OFFICIAL OBSERVATIONS...

CITY           SKY/WX    TMP DP  RH WIND       PRES   REMARKS
GOODLAND KS    SUNNY     97  47  18 SW18G30   30.02F
HILL CITY KS   NOT AVBL
IMPERIAL NEB   SUNNY    101  48  16 S18G28    29.95F
MCCOOK NEB     SUNNY     93  69  45 S14       29.96F
AKRON CO       SUNNY     96  48  19 W8G21     30.04F
BURLINGTON CO  SUNNY     96  44  16 S24G33    30.06F
LIMON CO       SUNNY     93  45  19 S17G29    30.12F
$$

...UNOFFICIAL OBSERVATIONS...

CITY           SKY/WX    TMP DP  RH WIND       PRES   REMARKS
COLBY KS       SUNNY     97  63  32 S16G22    30.01F
GOVE KS          N/A     94  32  11 MISG        N/A
LENORA KS        N/A     90  32  12 MISG        N/A
NORTON KS      SUNNY     93  64  38 S12G23    29.98F
OBERLIN KS     FAIR      97  61  30 S12G22    29.97F
SHARON SPRINGS   N/A     98  47  17 S20G29      N/A
ST FRANCIS KS  SUNNY    100  30   8 S24G33    29.97F
TRIBUNE KS     SUNNY     97 N/A N/A S23G29    30.06F
WAKEENEY KS      N/A     92  63  37 MISG        N/A
TRENTON NEB      N/A     96  32  10 S14         N/A
KIT CARSON CO    N/A     99  46  16 N18G29      N/A
WRAY CO          N/A    104  43  12 S20G30    29.97F
YUMA CO          N/A     97  50  20 S15         N/A
$$


USA.gov is the U.S. government's official web portal to all federal, state and local government web resources and services.